COSMOS 1823 DEB

Satellite information

Favourite Embed

Satellite Type and Status

DEBRISIN ORBIT

Key statistics

Satellite COSMOS 1823 DEB at a glance.

Uptime

13958

Days in orbit

Revolutions

≈ 12.5

Per day

Orbit

LEO

Low Earth Orbit

Inclination

73.6

Latest

Satellite identification and parameters

Extended collection of information and parameters for COSMOS 1823 DEB.

Object identification

Identified? True

Debris? True

Object name: COSMOS 1823 DEB

International designator: 1987-020FE

Object number (NORAD): 39830

Object ID (CCSDS): 39830

Country: COMMONWEALTH OF INDEPENDENT STATES (CIS)

Current information (Y/N): Y

RCS size: SMALL

Orbital parameters

Period: 115.448 minutes

Inclination: 73.5962 deg

SMA: 7853.9 km

Apoapsis: 1496.354 km

Periapsis: 1455.176 km

RAAN: 115.1843 deg

Eccentricy: 0.0026215

Argument of periapsis: 350.906 deg

Mean anomaly: 9.1509 deg

Mean motion: 12.4731092 rev/day

Mean motion (dot): 0.0000039 rev/day2

B* drag term: 0.0027749 1/REarth

Two-line elements (TLE)

Creation date: May 5, 2025, 2:11 a.m.

Reference frame: TEME

Reference center: EARTH

Epoch: May 4, 2025, 3:19 p.m. UTC

TLE line 0: 0 COSMOS 1823 DEB

TLE line 1: 1 39830U 87020FE 25124.63825792 .00000390 00000-0 27749-2 0 9999

TLE line 2: 2 39830 73.5962 115.1843 0026215 350.9060 9.1509 12.47310920496540

Live tracking on map

Real-time ground track for satellite COSMOS 1823 DEB.

In-orbit conjunctions

A list of the most updated potential collisions computed for object COSMOS 1823 DEB.

Target Orbit TCA Probability of collision Miss distance Type
COSMOS 412 LEO 2025-01-08 00:24:39 0.0004985273 191.0 (m) PAYLOAD
COSMOS 873 LEO 2024-06-17 13:39:42 0.00038649 372.0 (m) PAYLOAD

Associated space launch

A satellite for the GEO-IK geodetic system

COSMOS 1823 DEB was lifted into orbit during the mission ‘Tsiklon-3 | Geo-IK 9’, on board a Tsiklon-3 space rocket.

The launch took place on Feb. 20, 1987, 4:43 a.m. from 32/2.

For more information about the launch, click the button.

Launch to space Tsiklon-3 | Geo-IK 9
Tsiklon-3 | Geo-IK 9

Agency: N/A

Status: Launch Successful

Launch date: Feb. 20, 1987, 4:43 a.m. UTC

Rocket: Tsiklon-3

Launch pad: 32/2

Location: Plesetsk Cosmodrome, Russian Federation

...

Latest news about this satellite

There are no fresh news available about this satellite. Check back as we update our databases every day.


Newsletter sign-up

Weekly statistics, charts and insights to help you stay on top of the space industry.